TimePDT,TemperatureF,Dew PointF,Humidity,Sea Level PressureIn,VisibilityMPH,Wind Direction,Wind SpeedMPH,Gust SpeedMPH,PrecipitationIn,Events,Conditions,WindDirDegrees,DateUTC
12:55 AM,63.7,23.4,22,29.88,10.0,Calm,Calm,-,N/A,,Clear,0,2012-10-08 07:55:00
1:55 AM,61.9,23.0,23,29.89,10.0,Calm,Calm,-,N/A,,Clear,0,2012-10-08 08:55:00
2:55 AM,62.2,23.2,22,29.88,10.0,Calm,Calm,-,N/A,,Clear,0,2012-10-08 09:55:00
3:55 AM,63.5,25.0,23,29.88,10.0,Calm,Calm,-,N/A,,Clear,0,2012-10-08 10:55:00
4:55 AM,60.8,25.2,26,29.89,10.0,Calm,Calm,-,N/A,,Clear,0,2012-10-08 11:55:00
5:55 AM,60.8,25.2,26,29.91,10.0,North,3.5,-,N/A,,Clear,350,2012-10-08 12:55:00
6:55 AM,61.0,24.3,25,29.92,10.0,Calm,Calm,-,N/A,,Clear,0,2012-10-08 13:55:00
7:55 AM,63.1,26.1,25,29.94,10.0,Calm,Calm,-,N/A,,Clear,0,2012-10-08 14:55:00
8:55 AM,73.8,24.3,16,29.94,10.0,Calm,Calm,-,N/A,,Clear,0,2012-10-08 15:55:00
9:55 AM,78.1,22.1,12,29.92,10.0,South,4.6,-,N/A,,Clear,180,2012-10-08 16:55:00
10:55 AM,79.7,27.0,14,29.91,10.0,Variable,3.5,-,N/A,,Clear,0,2012-10-08 17:55:00
11:55 AM,82.0,30.9,16,29.90,10.0,Calm,Calm,-,N/A,,Clear,0,2012-10-08 18:55:00
12:55 PM,84.0,33.8,16,29.87,10.0,Calm,Calm,-,N/A,,Clear,0,2012-10-08 19:55:00
1:55 PM,85.6,35.1,16,29.83,10.0,East,8.1,-,N/A,,Clear,100,2012-10-08 20:55:00
2:55 PM,87.8,38.5,18,29.81,10.0,ESE,9.2,-,N/A,,Clear,110,2012-10-08 21:55:00
3:55 PM,89.4,34.9,14,29.78,10.0,SSE,9.2,-,N/A,,Clear,150,2012-10-08 22:55:00
4:55 PM,89.1,27.3,11,29.78,10.0,SSW,10.4,-,N/A,,Clear,210,2012-10-08 23:55:00
5:55 PM,86.9,22.1,9,29.79,10.0,SW,13.8,-,N/A,,Clear,230,2012-10-09 00:55:00
6:55 PM,79.3,23.0,12,29.80,10.0,SW,11.5,-,N/A,,Clear,220,2012-10-09 01:55:00
7:55 PM,78.6,24.3,13,29.81,10.0,South,9.2,-,N/A,,Clear,190,2012-10-09 02:55:00
8:55 PM,79.2,24.8,13,29.81,10.0,South,6.9,-,N/A,,Clear,180,2012-10-09 03:55:00
9:55 PM,79.2,26.6,14,29.81,10.0,South,12.7,-,N/A,,Clear,170,2012-10-09 04:55:00
10:55 PM,79.3,27.7,15,29.82,10.0,South,17.3,-,N/A,,Clear,170,2012-10-09 05:55:00
11:55 PM,79.0,28.9,16,29.81,10.0,South,15.0,-,N/A,,Clear,170,2012-10-09 06:55:00